Date String (YYYY-MM-DD hh:mm:ss) UTC,Instrument flags,absolute air pressure of the measurement (hPa),sample flow rate (lpm),inlet stack bypass flow (lpm),air temperature of the measurement (°C),ambient temperature measured by the external sensor (°C),aerosol sample conditioner tube jacket temperature (°C),OPC LED temperature (°C),internal box temperature (°C),relative humidity of the measurement (%),span deviation,mass concentration of particles derived from Lorenz-Mie calculation of OPC scattering (μg/m³),mass concentration of particles derived from Lorenz-Mie calculation of OPC scattering (μg/m³),mass concentration of particles derived from Lorenz-Mie calculation of OPC scattering (μg/m³)
DateTimeUTC,F1_M11,P_M11,Q1_M11,Q2_M11,T1_M11,T2_M11,T3_M11,T4_M11,T5_M11,U1_M11,ZSPAN_M11,X2_M11,X0_M11,X1_M11
2024-01-30 18:00:00,SystemResetWarning,0834.7,5.00,000.00,024.0,023.4,000.0,032.1,025.5,15.5,0000.0,0002.77,0003.64,0002.39
2024-01-30 18:01:00,SystemResetWarning,0834.7,5.00,000.00,024.0,023.4,000.0,032.1,025.5,15.0,0000.0,0002.82,0003.71,0002.43
2024-01-30 18:02:00,SystemResetWarning,0834.8,5.00,000.00,024.0,023.4,000.0,032.1,025.5,15.1,0000.0,0002.88,0003.83,0002.47
2024-01-30 18:03:00,SystemResetWarning,0834.9,5.00,000.00,024.0,023.4,000.0,032.1,025.5,15.2,0000.0,0002.96,0003.93,0002.52
2024-01-30 18:04:00,SystemResetWarning,0835.0,4.99,000.00,024.1,023.5,000.0,032.1,025.5,15.3,0000.0,0003.05,0004.07,0002.55
2024-01-30 18:05:00,SystemResetWarning,0835.1,5.00,000.00,024.1,023.5,000.0,032.2,025.6,15.2,0000.0,0003.11,0004.51,0002.57
2024-01-30 18:06:00,SystemResetWarning,0835.2,5.00,000.00,024.1,023.5,000.0,032.2,025.6,15.4,0000.0,0003.15,0004.70,0002.59
2024-01-30 18:07:00,SystemResetWarning,0835.1,5.00,000.00,024.1,023.5,000.0,032.2,025.6,15.4,0000.0,0003.15,0004.64,0002.60
2024-01-30 18:08:00,SystemResetWarning,0835.2,5.01,000.00,024.1,023.5,000.0,032.2,025.6,15.4,0000.0,0003.17,0004.69,0002.61
2024-01-30 18:09:00,SystemResetWarning,0835.1,5.00,000.00,024.2,023.6,000.0,032.3,025.6,15.4,0000.0,0003.20,0004.98,0002.65
2024-01-30 18:10:00,SystemResetWarning,0835.1,5.01,000.00,024.2,023.6,000.0,032.3,025.6,15.3,0000.0,0003.23,0005.75,0002.71
2024-01-30 18:11:00,SystemResetWarning,0834.8,5.00,000.00,024.2,023.6,000.0,032.3,025.7,15.5,0000.0,0003.23,0005.63,0002.76
2024-01-30 18:12:00,SystemResetWarning,0834.8,4.99,000.00,024.2,023.6,000.0,032.3,025.7,15.7,0000.0,0003.27,0005.72,0002.83
2024-01-30 18:13:00,SystemResetWarning,0835.2,4.99,000.00,024.2,023.6,000.0,032.3,025.7,15.6,0000.0,0003.34,0006.43,0002.91
2024-01-30 18:14:00,SystemResetWarning,0834.7,4.99,000.00,024.2,023.7,000.0,032.3,025.7,15.3,0000.0,0003.42,0006.84,0002.98
2024-01-30 18:15:00,SystemResetWarning,0835.0,5.00,000.00,024.3,023.7,000.0,032.4,025.7,15.2,0000.0,0003.45,0007.41,0003.06
2024-01-30 18:16:00,SystemResetWarning,0835.2,5.01,000.00,024.3,023.7,000.0,032.4,025.8,15.0,0000.0,0003.49,0007.58,0003.12
2024-01-30 18:17:00,SystemResetWarning,0835.0,5.00,000.00,024.3,023.7,000.0,032.4,025.9,15.2,0000.0,0003.57,0007.78,0003.18
2024-01-30 18:18:00,SystemResetWarning,0834.9,5.00,000.00,024.3,023.7,000.0,032.4,025.9,15.0,0000.0,0003.66,0008.04,0003.25
2024-01-30 18:19:00,SystemResetWarning,0834.8,5.00,000.00,024.3,023.8,000.0,032.4,025.9,15.0,0000.0,0003.74,0008.14,0003.30
2024-01-30 18:20:00,SystemResetWarning,0835.1,5.00,000.00,024.4,023.8,000.0,032.5,025.9,15.0,0000.0,0003.77,0008.68,0003.34
2024-01-30 18:21:00,SystemResetWarning,0835.1,5.00,000.00,024.4,023.8,000.0,032.5,025.9,15.1,0000.0,0003.79,0008.50,0003.35
2024-01-30 18:22:00,SystemResetWarning,0834.9,4.99,000.00,024.4,023.8,000.0,032.5,025.9,15.2,0000.0,0003.81,0008.86,0003.35
2024-01-30 18:23:00,SystemResetWarning,0834.7,5.00,000.00,024.4,023.8,000.0,032.5,026.0,15.4,0000.0,0003.84,0009.31,0003.36
2024-01-30 18:24:00,SystemResetWarning,0834.9,5.00,000.00,024.4,023.8,000.0,032.5,026.0,15.3,0000.0,0003.86,0009.32,0003.37
2024-01-30 18:25:00,SystemResetWarning,0834.6,5.00,000.00,024.5,023.9,000.0,032.6,026.0,15.1,0000.0,0003.84,0009.24,0003.37
2024-01-30 18:26:00,SystemResetWarning,0834.6,5.00,000.00,024.5,023.9,000.0,032.6,026.0,15.3,0000.0,0003.83,0008.98,0003.35
2024-01-30 18:27:00,SystemResetWarning,0834.7,5.00,000.00,024.5,023.9,000.0,032.6,026.1,15.4,0000.0,0003.80,0008.73,0003.33
2024-01-30 18:28:00,SystemResetWarning,0834.6,5.01,000.00,024.5,023.9,000.0,032.6,026.1,14.9,0000.0,0003.75,0008.47,0003.29
2024-01-30 18:29:00,SystemResetWarning,0834.8,5.00,000.00,024.5,023.9,000.0,032.6,026.1,14.8,0000.0,0003.70,0008.37,0003.25
2024-01-30 18:30:00,SystemResetWarning,0835.0,5.01,000.00,024.6,024.0,000.0,032.7,026.1,14.8,0000.0,0003.67,0008.59,0003.23
2024-01-30 18:31:00,SystemResetWarning,0835.1,5.00,000.00,024.6,024.0,000.0,032.7,026.1,15.1,0000.0,0003.64,0008.08,0003.21
2024-01-30 18:32:00,SystemResetWarning,0835.1,5.00,000.00,024.6,024.0,000.0,032.7,026.2,15.2,0000.0,0003.68,0007.97,0003.21
2024-01-30 18:33:00,SystemResetWarning,0835.1,5.00,000.00,024.6,024.0,000.0,032.7,026.2,15.1,0000.0,0003.67,0008.32,0003.23
2024-01-30 18:34:00,SystemResetWarning,0835.1,4.99,000.00,024.6,024.0,000.0,032.7,026.1,15.1,0000.0,0003.68,0008.60,0003.23
2024-01-30 18:35:00,SystemResetWarning,0835.1,4.99,000.00,024.6,024.1,000.0,032.7,026.2,14.9,0000.0,0003.65,0008.28,0003.23
2024-01-30 18:36:00,SystemResetWarning,0834.9,4.99,000.00,024.7,024.1,000.0,032.8,026.2,15.3,0000.0,0003.67,0008.25,0003.24
2024-01-30 18:37:00,SystemResetWarning,0835.0,5.00,000.00,024.7,024.1,000.0,032.8,026.2,15.2,0000.0,0003.67,0008.14,0003.27
2024-01-30 18:38:00,SystemResetWarning,0834.7,5.00,000.00,024.7,024.1,000.0,032.8,026.3,15.1,0000.0,0003.68,0008.29,0003.30
2024-01-30 18:39:00,SystemResetWarning,0834.6,5.01,000.00,024.7,024.1,000.0,032.8,026.3,15.0,0000.0,0003.71,0008.37,0003.36
2024-01-30 18:40:00,SystemResetWarning,0834.5,5.00,000.00,024.7,024.2,000.0,032.8,026.3,15.0,0000.0,0003.76,0008.45,0003.40
2024-01-30 18:41:00,SystemResetWarning,0834.5,4.99,000.00,024.8,024.2,000.0,032.9,026.3,14.9,0000.0,0003.79,0008.27,0003.43
2024-01-30 18:42:00,SystemResetWarning,0834.5,5.00,000.00,024.8,024.2,000.0,032.9,026.3,15.0,0000.0,0003.82,0008.35,0003.46
2024-01-30 18:43:00,SystemResetWarning,0834.5,5.00,000.00,024.8,024.2,000.0,032.9,026.4,15.1,0000.0,0003.84,0008.33,0003.48
2024-01-30 18:44:00,SystemResetWarning,0834.5,5.00,000.00,024.8,024.2,000.0,032.9,026.4,15.0,0000.0,0003.88,0007.97,0003.48
2024-01-30 18:45:00,SystemResetWarning,0834.5,5.00,000.00,024.9,024.3,000.0,032.9,026.4,14.7,0000.0,0003.86,0007.90,0003.50
2024-01-30 18:46:00,SystemResetWarning,0834.4,4.99,000.00,024.9,024.3,000.0,033.0,026.4,14.7,0000.0,0003.90,0007.87,0003.51
2024-01-30 18:47:00,SystemResetWarning,0834.5,4.99,000.00,024.9,024.3,000.0,033.0,026.5,14.9,0000.0,0003.91,0007.87,0003.52
2024-01-30 18:48:00,SystemResetWarning,0834.4,5.00,000.00,024.9,024.3,000.0,033.0,026.5,15.0,0000.0,0003.92,0008.15,0003.52
2024-01-30 18:49:00,SystemResetWarning,0834.4,5.00,000.00,024.9,024.3,000.0,033.0,026.5,14.8,0000.0,0003.94,0008.72,0003.53
2024-01-30 18:50:00,SystemResetWarning,0834.4,5.00,000.00,025.0,024.4,000.0,033.0,026.5,14.7,0000.0,0003.98,0008.73,0003.53
2024-01-30 18:51:00,SystemResetWarning,0834.3,5.00,000.00,025.0,024.4,000.0,033.1,026.5,14.8,0000.0,0003.96,0008.98,0003.52
2024-01-30 18:52:00,SystemResetWarning,0834.4,5.00,000.00,025.0,024.4,000.0,033.1,026.6,14.7,0000.0,0003.97,0009.54,0003.53
2024-01-30 18:53:00,SystemResetWarning,0834.3,5.00,000.00,025.0,024.4,000.0,033.1,026.6,14.7,0000.0,0003.96,0009.79,0003.53
2024-01-30 18:54:00,SystemResetWarning,0834.4,5.00,000.00,025.0,024.4,000.0,033.1,026.6,14.6,0000.0,0003.94,0009.72,0003.54
2024-01-30 18:55:00,SystemResetWarning,0834.3,5.00,000.00,025.1,024.4,000.0,033.1,026.6,14.5,0000.0,0003.92,0009.55,0003.54
2024-01-30 18:56:00,SystemResetWarning,0834.3,5.01,000.00,025.1,024.5,000.0,033.2,026.6,14.5,0000.0,0003.95,0008.78,0003.55
2024-01-30 18:57:00,SystemResetWarning,0834.3,5.00,000.00,025.1,024.5,000.0,033.2,026.6,14.5,0000.0,0003.95,0009.04,0003.56
2024-01-30 18:58:00,SystemResetWarning,0834.2,5.00,000.00,025.1,024.5,000.0,033.2,026.7,14.4,0000.0,0003.96,0009.66,0003.57
2024-01-30 18:59:00,SystemResetWarning,0834.4,5.00,000.00,025.1,024.5,000.0,033.2,026.7,14.5,0000.0,0003.98,0009.66,0003.58
